Regional Weather Roundup
Issued by NWS

Home | Current Version | Previous Version | Graphics & Text | Print | Product List | Glossary On
Versions: 1 2 3 4 5 6 7 8 9 10 11 12 13 14 15 16 17 18 19 20 21 22 23 24 25 26 27 28 29 30 31 32 33 34 35 36 37 38 39 40 41 42 43 44 45 46 47 48 49 50
000
ASUS43 KDTX 251610
RWRMI
MICHIGAN HOURLY REGIONAL WEATHER ROUNDUP
NATIONAL WEATHER SERVICE DETROIT/PONTIAC MI
1200 PM EDT SAT APR 25 2015

NOTE: "FAIR" INDICATES FEW OR NO CLOUDS BELOW 12,000 FEET WITH NO
SIGNIFICANT WEATHER AND/OR OBSTRUCTION TO VISIBILITY.

MIZ047>049-052>055-059>063-066>070-074>076-081>083-251700-
SOUTHEAST LOWER MICHIGAN

CITY           SKY/WX    TMP DP  RH WIND       PRES   REMARKS
ADRIAN         CLOUDY    44  38  79 SE16      29.88S
ALMA           CLOUDY    46  30  54 NE12      29.91F
ANN ARBOR      CLOUDY    47  33  58 SE13      29.88F
BAD AXE        SUNNY     44  21  41 SE8G16    29.97F
DETROIT CITY   CLOUDY    44  28  53 E14       29.91F
DETROIT        CLOUDY    50  28  42 E12G17    29.91F
FLINT          CLOUDY    49  28  44 E12       29.91F
GROSSE ILE     CLOUDY    48  27  43 E10G16    29.89F
HILLSDALE      CLOUDY    43  40  89 E12       29.85S
HOWELL         CLOUDY    47  29  50 NE12      29.88S

CITY           SKY/WX    TMP DP  RH WIND       PRES   REMARKS
JACKSON        CLOUDY    44  36  73 E13       29.86F
LAMBERTVILLE   CLOUDY    45  36  70 E10G20    29.87F
LANSING        CLOUDY    48  35  60 E12       29.88F
LAPEER         NOT AVBL
MASON          CLOUDY    46  33  60 E10       29.87F
MONROE         CLOUDY    45  34  65 E9G17     29.88F
MT. CLEMENS    PTSUNNY   43  27  52 E10       29.91F
PONTIAC        CLOUDY    45  24  43 E12       29.89F
PORT HOPE        N/A     38  28  67 E6        29.98F
PORT HURON     MOSUNNY   45  25  45 NE8       29.94F
TRI CITIES     PTSUNNY   47  28  47 NE17      29.94F
YPSILANTI      CLOUDY    53  30  41 E15       29.89F
$$
MIZ043>046-050>051-056>058-064>065-071>073-077>080-251700-
SOUTHWEST LOWER MICHIGAN

CITY           SKY/WX    TMP DP  RH WIND       PRES   REMARKS
BATTLE CREEK   CLOUDY    45  38  76 E12       29.84F
BENTON HARBOR  CLOUDY    47  38  71 E15G23    29.79F
BIG RAPIDS     PTSUNNY   46  29  53 E13       29.89F
COLDWATER      CLOUDY    44  38  81 E13G18    29.82F
HOLLAND        CLOUDY    47  37  68 E13       29.85F
GRAND RAPIDS   CLOUDY    46  33  60 E9        29.87F
KALAMAZOO      CLOUDY    45  38  76 E8        29.84F
MARSHALL       CLOUDY    43  38  83 E6        29.85F
MUSKEGON       CLOUDY    46  32  58 E16G23    29.87F
$$
MIZ016>042-251700-
NORTHERN LOWER MICHIGAN

CITY           SKY/WX    TMP DP  RH WIND       PRES   REMARKS
ALPENA         SUNNY     46  18  32 E6        29.99F
BEAVER ISLAND  SUNNY     42  22  45 NE9       30.00F
BELLAIRE       SUNNY     49  14  25 NE8       29.95F
CADILLAC       CLOUDY    47  21  35 E13       29.90F
CHARLEVOIX     SUNNY     45  20  37 N12       29.99F
FRANKFORT      PTSUNNY   49  13  24 NE8       29.92F
GAYLORD        SUNNY     44  10  25 NE9       29.94F
GRAYLING       MOSUNNY   47  15  27 E8        29.94F
HARBOR SPRINGS SUNNY     46  20  35 NE9       29.98F
HOUGHTON LAKE  MOSUNNY   47  20  34 E13G20    29.93F
MANISTEE       PTSUNNY   46  21  36 NE13      29.92F
OSCODA         SUNNY     43  24  46 E6        29.99F
PELLSTON       SUNNY     46  20  35 SE10      29.99F
TRAVERSE CITY  MOSUNNY   46  23  40 N10       29.92F
$$
MIZ007>008-015-251700-
EASTERN UPPER MICHIGAN

CITY           SKY/WX    TMP DP  RH WIND       PRES   REMARKS
KINROSS        SUNNY     45  18  33 E8        29.99F
MACKINAC ISLAN SUNNY     39  25  57 E12       30.01F
NEWBERRY       SUNNY     44  23  43 NE8       29.99S
S. S. MARIE    SUNNY     46  18  32 VRB5      29.99F
$$
MIZ004>006-011>014-085-251700-
CENTRAL UPPER MICHIGAN

CITY           SKY/WX    TMP DP  RH WIND       PRES   REMARKS
MANISTIQUE     SUNNY     41  28  61 SE9       30.00S
ESCANABA       PTSUNNY   43  19  39 NE7       29.98F
MENOMINEE      MOSUNNY   43  19  39 E15       29.96F
SAWYER-GWINN   SUNNY     39  23  52 N9        29.99S
$$
MIZ001>003-009>011-084-251700-
WESTERN UPPER MICHIGAN

CITY           SKY/WX    TMP DP  RH WIND       PRES   REMARKS
IRON MOUNTAIN  MOSUNNY   46  18  32 VRB7      29.96F
HOUGHTON       SUNNY     40  19  43 E13G20    30.01S
COPPER HARBOR    N/A     38  30  73 E7        30.04S
IRONWOOD       SUNNY     48  27  43 E6        29.92F
$$

ABBREVIATIONS USED IN REMARKS
   TC - TEMPERATURE IN CELSIUS
  WCI - WIND CHILL INDEX
   HX - HEAT INDEX
  VSB - VISIBILITY




USA.gov is the U.S. government's official web portal to all federal, state and local government web resources and services.